Погода в Большой Ижморе

Россия / Пензенская область     53°33′15″N   42°49′34″E
темп.,
°C
ветер,
м/с
пор.,
м/с
влажн.,
%
обл.,
%
осадки,
мм/ч
давл.,
гПа
погр.,
м
14 мая, пт
пт1400:00+13ююв228999 0.0 101810
03:00+13в1190100 0.0 101810
06:00+15в2292100 0.1 101832
09:00+20юв227646 0.1 1018476
12:00+23ююв345884 0.0 10181168
15:00+25ююв5655100 0.0 10161323
18:00+22ююв3372100 0.1 101652
21:00+18юв358796 0.6 101580
15 мая, сб
сб1500:00+17юв41190100 0.0 1014199
03:00+16юв41187100 0.0 1013191
06:00+16ююв4108599 0.0 1014261
09:00+20ююв7116797 0.0 1014519
12:00+23ю71157100 0.0 1014879
15:00+24ю585548 0.0 10141240
18:00+22ю49697 0.1 1014317
21:00+18ю338298 0.1 101438
16 мая, вс
вс1600:00+16ююз2291100 0.9 101420
03:00+16зюз1192100 0.9 101411
06:00+17ссв0188100 0.1 101534
09:00+18юв1185100 2.6 1016143
12:00+23ссв0168100 0.0 1015723
15:00+25ю345341 0.1 10141548
18:00+22ю367099 0.1 1014181
21:00+18ююв3374100 0.1 101523
17 мая, пн
пн1700:00+17вюв227397 0.0 101513
03:00+16вюв3477100 0.0 101646
06:00+16юв477864 0.0 1015138
09:00+22юв5115643 0.0 1015457
12:00+25ююв68455 0.0 1015922
15:00+27ююв585094 0.0 10141092
18:00+23юв51166100 0.0 1014313
21:00+19юв4117343 0.0 1014171
18 мая, вт
вт1800:00+18юв5145992 0.0 1013241
03:00+16юв514525 0.0 1013215
06:00+16юв512665 0.0 1012227
09:00+21ююв6125699 0.0 1012433
12:00+25ююв6104898 0.0 1012805
15:00+27юв6115088 0.0 10111631
18:00+23ююв4967100 0.0 1010250
21:00+20юв337659 0.0 101037